Regional Weather Roundup
Issued by NWS Sterling, VA

Home | Current Version | Previous Version | Text Only | Print | Product List | Glossary Off
Versions: 1 2 3 4 5 6 7 8 9 10 11 12 13 14 15 16 17 18 19 20 21 22 23 24 25 26 27 28 29 30 31 32 33 34 35 36 37 38 39 40 41 42 43 44 45 46 47 48 49 50

000
ASUS41 KLWX 061810
RWRLWX

REGIONAL WEATHER ROUNDUP
NATIONAL WEATHER SERVICE BALTIMORE MD/WASHINGTON DC
100 PM EST FRI MAR 06 2015

Note: "FAIR" indicates few or no clouds below 12,000 feet
with no significant weather and/or obstructions to visibility.
 TC=TEMPERATURE CELSIUS

 * =Non NWS site. Station does not report precipitation (e.g. rain,
    snow, etc.), thunder, or fog.

DCZ001-MDZ009-015-VAZ040>042-051-053>054-061900-
WASHINGTON METRO

CITY           SKY/WX    TMP DP  RH WIND       PRES   REMARKS
WASHINGTON NAT FAIR      27   7  42 VRB3      30.56F
DULLES         FAIR      21   3  45 VRB3      30.55F
ANDREWS AFB    FAIR      22   7  50 VRB1      30.53F
FT BELVOIR     FAIR      25   6  44 VRB3      30.56F
QUANTICO       FAIR      23  11  60 E12       30.58F WCI  12
COLLEGE PARK*  FAIR      25   7  46 CALM      30.56F
LEESBURG*      FAIR      23   7  50 NW5       30.56F
MANASSAS*      SUNNY     30   9  40 N5        30.56F
GAITHERSBURG*  FAIR      19   3  49 NW3       30.56F

$$

MDZ006>007-011-014-061900-
BALTIMORE METRO

CITY           SKY/WX    TMP DP  RH WIND       PRES   REMARKS
BWI AIRPORT    FAIR      24   5  44 CALM      30.54F
MD SCIENCE CTR   N/A     23   5  46 MISG      30.58F
MARTIN STATE   SUNNY     25   9  50 W7        30.58F
ANNAPOLIS      FAIR      24   6  46 NW5       30.56F
FORT MEADE*    FAIR      23   5  46 CALM      30.57F

$$

MDZ012-015-019>023-061900-
MARYLAND EASTERN SHORE

CITY           SKY/WX    TMP DP  RH WIND       PRES   REMARKS
OCEAN CITY     CLOUDY    23  14  68 NE12      30.53F WCI  12
SALISBURY      PTSUNNY   28  13  53 E8        30.52F WCI  20
BAY BRIDGE AP*   N/A     23   5  46 N6        30.56F
CAMBRIDGE*     FAIR      23   9  54 N8        30.55F WCI  14

$$

MDZ017>025-061900-
SOUTHERN MARYLAND

CITY           SKY/WX    TMP DP  RH WIND       PRES   REMARKS
PATUXENT RIVER FAIR      21   9  58 N10       30.55F WCI  10
ST INIGOES     FAIR      24   8  50 N7        30.55F
LEONARDTOWN*   FAIR      23  10  58 N8        30.56F WCI  14

$$

MDZ003>005-061900-
NORTH CENTRAL MARYLAND

CITY           SKY/WX    TMP DP  RH WIND       PRES   REMARKS
FREDERICK*     SUNNY     23   0  36 VRB5      30.59F
HAGERSTOWN APT FAIR      18  -1  43 W6        30.52F
WESTMINSTER*   FAIR      18   9  68 W8        30.50F WCI   7

$$

MDZ501>502-061900-
WESTERN MARYLAND

CITY           SKY/WX    TMP DP  RH WIND       PRES   REMARKS
OAKLAND*       FAIR      19   0  42 S6        30.30F
CUMBERLAND*    FAIR      27   3  36 CALM      30.53F

$$

VAZ025>031-061900-
SHENANDOAH VALLEY

CITY           SKY/WX    TMP DP  RH WIND       PRES   REMARKS
WINCHESTER*    FAIR      28   0  29 CALM      30.51F
FRONT ROYAL*   FAIR      23   3  42 CALM      30.51F
LURAY*         FAIR      27  10  50 CALM      30.49F
NEW MARKET*    FAIR      21   4  49 CALM      30.49F
STAUNTON*      FAIR      22   7  52 NE3       30.49F
WAYNESBORO*    FAIR      18   6  60 N3        30.45F

$$

WVZ021-048>050-054>055-061900-
EASTERN WEST VIRGINIA PANHANDLE

CITY           SKY/WX    TMP DP  RH WIND       PRES   REMARKS
MARTINSBURG    FAIR      21   3  45 E3        30.53F
PETERSBURG*    NOT AVBL

$$

VAZ036>039-050-061900-
CENTRAL FOOTHILLS

CITY           SKY/WX    TMP DP  RH WIND       PRES   REMARKS
CHARLOTTESVILL FAIR      26   8  46 CALM      30.50F
CULPEPER*      FAIR      25   1  36 CALM      30.54F
ORANGE*        FAIR      27   5  39 N3        30.54F
GORDONSVILLE*  FAIR      23   5  45 NE3       30.52F
WARRENTON*     FAIR      26  11  52 NW3       30.54F

$$

VAZ055>057-061900-
NORTH AND CENTRAL PIEDMONT

CITY           SKY/WX    TMP DP  RH WIND       PRES   REMARKS
FREDERICKSBRG* FAIR      27   8  44 CALM      30.55F
STAFFORD*      FAIR      24   1  37 CALM      30.59F

$$

NCZ024-NYZ072-PAZ021-071-VAZ022-071-061900-
OTHER REGIONAL OBSERVATIONS

CITY           SKY/WX    TMP DP  RH WIND       PRES   REMARKS
NEW YORK CITY  FAIR      23  -2  33 VRB6      30.53F
PHILADELPHIA   FAIR      23   9  55 VRB5      30.54F
PITTSBURGH     PTSUNNY   18   3  52 S7        30.46F
ROANOKE        FAIR      24   7  48 CALM      30.48F
RICHMOND       FAIR      27  10  49 NW6       30.54F
RALEIGH        FAIR      32  10  40 N3        30.48F

$$

ANZ530>537-061900-
MARINE OBSERVATIONS

STATION/POSITION TIME  TEMP    WIND        PRES
                       AIR SEA DIR/SP/G
                 (UTC) (F)     (DEG/KT/KT) (MB)
THOMAS PT LIGHT  1800           20/  9/ 10   N/A
BALT KEY BRIDGE  1700   20     340/  2/  3 1035.7F
COVE POINT       1700   17      20/ 12/ 14 1035.5F
LEWISETTA        1700   21 32   30/  3/  9 1034.9F
SOLOMONS ISLAND  1700      33                N/A

$$



USA.gov is the U.S. government's official web portal to all federal, state and local government web resources and services.